This is the latest recevied weather packets stored in our database for station/object KW4UJ. If no packets are shown the sender has not sent any weather packets the latest 10 day(s).
| Time | Temp. | Humidity | Pressure | Rain* | Wind** | Luminosity | Snow |
|---|---|---|---|---|---|---|---|
| 1777989873 | 23.33° C | 46% | 1012.5 hPa | 0 mm | - | 421 W/m² | - |
| 1777989570 | 22.78° C | 46% | 1012.4 hPa | 0 mm | - | 427 W/m² | - |
| 1777989266 | 23.33° C | 46% | 1012.3 hPa | 0 mm | - | 413 W/m² | - |
| 1777988963 | 22.78° C | 46% | 1012.3 hPa | 0 mm | - | 402 W/m² | - |
| 1777988659 | 22.22° C | 48% | 1012.2 hPa | 0 mm | - | 393 W/m² | - |
| 1777988356 | 21.67° C | 48% | 1012.2 hPa | 0 mm | - | 381 W/m² | - |
| 1777988053 | 21.67° C | 49% | 1012.2 hPa | 0 mm | - | 367 W/m² | - |
| 1777987749 | 21.67° C | 48% | 1012.2 hPa | 0 mm | - | 352 W/m² | - |
| 1777987446 | 21.67° C | 49% | 1012.6 hPa | 0 mm | - | 344 W/m² | - |
| 1777987143 | 21.11° C | 49% | 1012.3 hPa | 0 mm | - | 329 W/m² | - |
| 1777986840 | 20.56° C | 50% | 1012.4 hPa | 0 mm | - | 316 W/m² | - |
| 1777986538 | 21.11° C | 50% | 1012.3 hPa | 0 mm | - | 304 W/m² | - |
| 1777986235 | 21.11° C | 50% | 1012.4 hPa | 0 mm | - | 293 W/m² | - |
| 1777985932 | 20.56° C | 50% | 1012.5 hPa | 0 mm | - | 59 W/m² | - |
| 1777985631 | 20.56° C | 49% | 1012.6 hPa | 0 mm | - | 266 W/m² | - |
| 1777985326 | 20° C | 51% | 1012.4 hPa | 0 mm | - | 254 W/m² | - |
| 1777985023 | 20° C | 51% | 1012.6 hPa | 0 mm | - | 241 W/m² | - |
| 1777984719 | 20° C | 52% | 1012.5 hPa | 0 mm | - | 227 W/m² | - |
| 1777984416 | 20.56° C | 51% | 1012.6 hPa | 0 mm | - | 211 W/m² | - |
| 1777984112 | 20° C | 52% | 1012.5 hPa | 0 mm | - | 201 W/m² | - |
| 1777983810 | 19.44° C | 52% | 1012.2 hPa | 0 mm | - | 187 W/m² | - |
| 1777983506 | 19.44° C | 54% | 1012.5 hPa | 0 mm | - | 174 W/m² | - |
| 1777983204 | 18.89° C | 53% | 1012.6 hPa | 0 mm | - | 163 W/m² | - |
| 1777982899 | 18.89° C | 54% | 1012.6 hPa | 0 mm | - | 150 W/m² | - |
| 1777982595 | 18.33° C | 54% | 1012.6 hPa | 0 mm | - | 139 W/m² | - |
* Rain latest hour (hover to see other rain measurements)
** Current wind speed in m/s (hover to see current wind gust speed)